Regional Weather Roundup
Issued by NWS Northern Indiana

Home | Current Version | Previous Version | Text Only | Print | Product List | Glossary Off
Versions: 1 2 3 4 5 6 7 8 9 10 11 12 13 14 15 16 17 18 19 20 21 22 23 24 25 26 27 28 29 30 31 32 33 34 35 36 37 38 39 40 41 42 43 44 45 46 47 48 49 50

000
ASUS43 KIWX 240200
RWRIWX

KIWX WEATHER ROUNDUP
NATIONAL WEATHER SERVICE NORTHERN INDIANA
1000 PM EDT TUE MAY 23 2017

NOTE: "FAIR" INDICATES FEW OR NO CLOUDS BELOW 12,000 FEET WITH NO
SIGNIFICANT WEATHER AND/OR OBSTRUCTIONS TO VISIBILITY.

* THESE STATIONS ARE NOT UNDER NWS QUALITY CONTROL. THEY ALSO MAY NOT
  REPORT WEATHER SUCH AS PRECIPITATION OR FOG.

INZ001>027-240300-
NORTHERN INDIANA

CITY           SKY/WX    TMP DP  RH WIND       PRES   REMARKS
GARY*          LGT RAIN  57  54  88 N7        29.71S
MICHIGAN CITY* CLOUDY    54  54 100 NW5       29.71R
SOUTH BEND     CLOUDY    59  54  83 E6        29.69F
GOSHEN         CLOUDY    60  55  83 NE7       29.69S
MONTICELLO*    CLOUDY    62  56  79 N5        29.66S
WARSAW*        CLOUDY    61  54  77 NE7       29.68F
ANGOLA*        CLEAR     59  55  88 NE6       29.69F
FORT WAYNE     CLOUDY    65  48  54 E6        29.66F
PERU/GRISSOM   CLOUDY    64  54  70 NE6       29.64F

$$
INZ028>050-240300-
CENTRAL INDIANA

CITY           SKY/WX    TMP DP  RH WIND       PRES   REMARKS
LAFAYETTE      CLOUDY    63  55  75 N6        29.64F
KOKOMO*        CLOUDY    65  54  67 NE10      29.66S
MUNCIE*        MOCLDY    67  51  56 NE3       29.65F
INDIANAPOLIS   CLOUDY    66  48  52 SW6       29.64F

$$
MIZ043>046-050>051-056>058-064>065-071>073-077>080-240300-
SOUTHWEST LOWER MICHIGAN

CITY           SKY/WX    TMP DP  RH WIND       PRES   REMARKS
BATTLE CREEK   MOCLDY    58  54  86 E6        29.72R
BENTON HARBOR  CLOUDY    59  54  83 CALM      29.70S
COLDWATER*     CLOUDY    58  57  98 NE5       29.71F
HILLSDALE*     CLOUDY    57  52  82 NE9       29.71F
HOLLAND        MOCLDY    59  55  87 CALM      29.72S
GRAND RAPIDS   CLOUDY    58  57  97 N3        29.71F
KALAMAZOO      CLOUDY    59  53  80 NE3       29.72S
STURGIS*       CLOUDY    58  56  92 E9        29.70R
THREE RIVERS*  FAIR      58  56  92 CALM      29.71S

$$
OHZ001>008-015>018-024>025-240300-
NORTHWEST OHIO

CITY           SKY/WX    TMP DP  RH WIND       PRES   REMARKS
DEFIANCE       CLOUDY    64  46  52 NE6       29.69S
FINDLAY        CLOUDY    65  47  52 NE10      29.67F
TOLEDO EXPRESS CLOUDY    63  48  58 E7        29.70S
TOLEDO METCALF CLOUDY    62  51  67 E6        29.71S
LIMA           CLOUDY    63  52  67 NE6       29.67S

$$
AND FOR LAKE MICHIGAN COASTAL AND OPEN LAKE BUOY OBSERVATIONS

STATION/POSITION TEMP    WIND        PRES    VSBY  WAVE
                 AIR SEA DIR/SP/G                  HT/PER
                 (F)     (DEG/KT/KT) (MB)    (MI)  (FT/S)
CALUMET HARBOR    55     350/  3/  6 1005.3F
MICHIGAN CITY     53     300/ 11/ 12   N/A
BURNS HARBOR      56      20/ 14/ 17 1006.1F
SOUTH LAKE BUOY   50 45  360/  2/  2 1006.7          0
4 MI NW BRIDGMAN  59 56   60/  4/  6 1005.9R         0
MICHIGAN CITY     53 53  310/ 12/ 16   N/A           1

$$
&&




USA.gov is the U.S. government's official web portal to all federal, state and local government web resources and services.